• Join FlightAware (Why Join?)
  • Login
  • US Flag GB Flag 
06:17 EDT


 

Airport Tracker/Info


-or-


 

Live Flight TrackerFlight Track Log ✈ UCA3599 ✈ 11-Nov-2013 ✈ KBGM - KIAD

Flight Track Log - Related Links

Times and Time Zones

All times are in EST time to prevent confusion due to time zone crossing. See the UCA3599 flight status page for this flight to view local times or setup timezone preferences in your user account.

Time Position Orientation Groundspeed Altitude Reporting Facility
EST Latitude Longitude Course Direction KTS MPH feet Rate Location/Type
06:07 42.2397 -76.0339 298° West 258 297 3,800  Level New York Center
06:08 42.2603 -76.0858 298° West 212 244 4,000 480 Climbing New York Center
06:09 42.2697 -76.1567 280° West 207 238 4,800 1,020 Climbing New York Center
06:10 42.2244 -76.1894 208° Southwest 162 186 6,100 1,200 Climbing New York Center
06:11 42.1753 -76.2189 204° Southwest 174 200 7,300 1,260 Climbing New York Center
06:12 42.1239 -76.2481 203° Southwest 192 221 8,600 1,260 Climbing New York Center
06:13 42.0708 -76.2717 198° South 198 228 9,900 1,200 Climbing New York Center
06:14 42.0175 -76.2981 200° South 203 234 11,100 1,260 Climbing New York Center
06:15 41.9728 -76.3194 200° South 203 234 12,400 1,140 Climbing New York Center
06:16 41.9194 -76.3456 200° South 203 234 13,400 1,140 Climbing New York Center
06:17 41.8619 -76.3769 202° Southwest 203 234 14,700 1,260 Climbing New York Center
06:18 41.8044 -76.4028 199° South 208 239 15,900 600 Climbing New York Center
06:19 41.7511 -76.4289 200° South 220 253 16,000  Climbing New York Center
06:20 41.6872 -76.4567 198° South 240 276 16,000  Level New York Center
06:21 41.6169 -76.4925 201° Southwest 246 283 16,000  Level New York Center
06:22 41.5528 -76.5231 200° South 246 283 16,000  Level New York Center
06:23 41.4889 -76.5536 200° South 251 289 16,000  Level New York Center
06:24 41.4333 -76.5819 201° Southwest 251 289 16,000  Level New York Center
06:25 41.3889 -76.6389 224° Southwest 234 269 16,000  Level New York Center
06:26 41.3417 -76.7067 227° Southwest 229 264 16,000  Level New York Center
06:27 41.2758 -76.7314 196° South 238 274 16,000  Level New York Center
06:28 41.2042 -76.7525 192° South 252 290 16,000  Level New York Center
06:29 41.1319 -76.7764 194° South 259 298 16,000  Level New York Center
06:30 41.0642 -76.7981 194° South 259 298 16,000  Level New York Center
06:31 40.9944 -76.8192 193° South 265 305 16,000  Level New York Center
06:32 40.9264 -76.8433 195° South 265 305 16,000  Level New York Center
06:33 40.8567 -76.8647 193° South 265 305 16,000  Level New York Center
06:34 40.7867 -76.8858 193° South 265 305 16,000  Level New York Center
06:35 40.7169 -76.9069 193° South 260 299 16,000  Level New York Center
06:36 40.6469 -76.9308 195° South 267 307 16,000  Level New York Center
06:37 40.5769 -76.9519 193° South 267 307 16,000  Level New York Center
06:38 40.5133 -76.9708 193° South 267 307 16,000 -360 Level New York Center
06:40 40.3500 -77.0167 192° South 274 315 14,900 -720 Descending Potomac TRACON
06:41 40.2833 -77.0333 191° South 273 314 14,000 -1,020 Descending Potomac TRACON
06:42 40.2167 -77.0667 201° Southwest 273 314 13,000 -1,020 Descending Potomac TRACON
06:43 40.1500 -77.0833 191° South 273 314 12,000 -1,020 Descending Potomac TRACON
06:44 40.0667 -77.1000 189° South 267 307 11,000 -1,020 Descending Potomac TRACON
06:45 40.0000 -77.1333 201° Southwest 255 293 10,000 -1,020 Descending Potomac TRACON
06:46 39.9333 -77.1500 191° South 252 290 9,100 -600 Descending Potomac TRACON
06:47 39.8833 -77.1167 153° Southeast 274 315 9,000 -60 Descending Potomac TRACON
06:48 39.8000 -77.0500 148° Southeast 271 312 9,000  Level Potomac TRACON
06:49 39.7333 -77.0500 180° South 253 291 9,000 -180 Level Potomac TRACON
06:50 39.7167 -77.1000 247° West 228 262 8,700 -480 Descending Potomac TRACON
06:51 39.6833 -77.1833 243° Southwest 241 277 8,200 -480 Descending Potomac TRACON
06:52 39.6500 -77.2500 237° Southwest 248 285 7,800 -480 Descending Potomac TRACON
06:53 39.6167 -77.3333 243° Southwest 242 278 7,300 -480 Descending Potomac TRACON
06:54 39.5833 -77.3833 229° Southwest 227 261 7,000 -180 Descending Potomac TRACON
06:55 39.5167 -77.3833 180° South 259 298 7,000  Level Potomac TRACON
06:56 39.4500 -77.3667 169° South 257 296 7,000 -300 Level Potomac TRACON
06:57 39.3833 -77.3667 180° South 253 291 6,500 -780 Descending Potomac TRACON
06:58 39.3000 -77.3667 180° South 249 287 5,500 -900 Descending Potomac TRACON
06:59 39.2500 -77.3667 180° South 228 262 4,800 -780 Descending Potomac TRACON
07:00 39.1833 -77.3500 169° South 213 245 4,100 -420 Descending Potomac TRACON
07:01 39.1333 -77.3500 180° South 211 243 4,000 -60 Descending Potomac TRACON
07:02 39.0667 -77.3500 180° South 215 247 4,000  Level Potomac TRACON
07:03 39.0167 -77.3500 180° South 213 245 4,000  Level Potomac TRACON
07:04 38.9500 -77.3500 180° South 214 246 4,000 -60 Level Potomac TRACON
07:05 38.9000 -77.3500 180° South 217 250 3,900 -420 Descending Potomac TRACON
07:06 38.8333 -77.3667 191° South 209 241 3,200 -480 Descending Potomac TRACON
07:07 38.7833 -77.3667 180° South 212 244 3,000 -120 Descending Potomac TRACON
07:08 38.7333 -77.3667 180° South 218 251 3,000  Level Potomac TRACON
07:09 38.7500 -77.4167 293° West 166 191 3,000  Level Potomac TRACON
07:10 38.7833 -77.4333 339° North 153 176 3,000 -420 Level Potomac TRACON
07:11 38.8333 -77.4333 360° North 162 186 2,200 -840 Descending Potomac TRACON
07:12 38.8667 -77.4333 360° North 139 160 1,400 -720 Descending Potomac TRACON
07:13 38.9000 -77.4333 360° North 116 133 800 -600 Descending Potomac TRACON